Time,TemperatureF,DewpointF,PressureIn,WindDirection,WindDirectionDegrees,WindSpeedMPH,WindSpeedGustMPH,Humidity,HourlyPrecipIn,Conditions,Clouds,dailyrainin,SolarRadiationWatts/m^2,SoftwareType,DateUTC
2013-03-14 00:12:00,6.0,2.0,-100.00,SSW,206,0.0,2.0,83,0.00,,,0.21,1.000000,,2013-03-14 04:12:00,
2013-03-14 00:22:00,6.0,2.0,-100.00,SSW,206,0.0,2.0,83,0.00,,,0.21,1.000000,,2013-03-14 04:22:00,
2013-03-14 00:32:00,6.0,2.0,-100.00,SSW,206,0.0,2.0,83,0.00,,,0.21,1.000000,,2013-03-14 04:32:00,
2013-03-14 01:02:00,3.0,-1.0,-100.00,South,183,0.0,2.0,81,0.00,,,0.21,1.000000,,2013-03-14 05:02:00,
2013-03-14 01:12:00,3.0,-1.0,-100.00,South,183,0.0,2.0,81,0.00,,,0.21,1.000000,,2013-03-14 05:12:00,
2013-03-14 01:22:00,3.0,-1.0,-100.00,South,183,0.0,2.0,81,0.00,,,0.21,1.000000,,2013-03-14 05:22:00,
2013-03-14 01:33:00,3.0,-1.0,-100.00,South,183,0.0,2.0,81,0.00,,,0.21,1.000000,,2013-03-14 05:33:00,
2013-03-14 02:02:00,1.0,-4.0,-100.00,SW,232,1.0,2.0,79,0.00,,,0.21,1.000000,,2013-03-14 06:02:00,
2013-03-14 02:12:00,1.0,-4.0,-100.00,SW,232,1.0,2.0,79,0.00,,,0.21,1.000000,,2013-03-14 06:12:00,
2013-03-14 02:22:00,1.0,-4.0,-100.00,SW,232,1.0,2.0,79,0.00,,,0.21,1.000000,,2013-03-14 06:22:00,
2013-03-14 02:32:00,1.0,-4.0,-100.00,SW,232,1.0,2.0,79,0.00,,,0.21,1.000000,,2013-03-14 06:32:00,
2013-03-14 03:02:00,-1.0,-6.0,-100.00,SW,227,1.0,2.0,79,0.00,,,0.21,1.000000,,2013-03-14 07:02:00,
2013-03-14 03:12:00,-1.0,-6.0,-100.00,SW,227,1.0,2.0,79,0.00,,,0.21,1.000000,,2013-03-14 07:12:00,
2013-03-14 03:22:00,-1.0,-6.0,-100.00,SW,227,1.0,2.0,79,0.00,,,0.21,1.000000,,2013-03-14 07:22:00,
2013-03-14 03:32:00,-1.0,-6.0,-100.00,SW,227,1.0,2.0,79,0.00,,,0.21,1.000000,,2013-03-14 07:32:00,
2013-03-14 04:02:00,-3.0,-9.0,-100.00,SSW,208,0.0,2.0,76,0.00,,,0.21,1.000000,,2013-03-14 08:02:00,
2013-03-14 04:12:00,-3.0,-9.0,-100.00,SSW,208,0.0,2.0,76,0.00,,,0.21,1.000000,,2013-03-14 08:12:00,
2013-03-14 04:22:00,-3.0,-9.0,-100.00,SSW,208,0.0,2.0,76,0.00,,,0.21,1.000000,,2013-03-14 08:22:00,
2013-03-14 04:32:00,-3.0,-9.0,-100.00,SSW,208,0.0,2.0,76,0.00,,,0.21,1.000000,,2013-03-14 08:32:00,
2013-03-14 04:52:00,-6.0,-12.0,-100.00,SW,225,0.0,0.0,75,0.00,,,0.21,1.000000,,2013-03-14 08:52:00,
2013-03-14 05:02:00,-6.0,-12.0,-100.00,SW,225,0.0,0.0,75,0.00,,,0.21,1.000000,,2013-03-14 09:02:00,
2013-03-14 05:12:00,-6.0,-12.0,-100.00,SW,225,0.0,0.0,75,0.00,,,0.21,1.000000,,2013-03-14 09:12:00,
2013-03-14 05:22:00,-6.0,-12.0,-100.00,SW,225,0.0,0.0,75,0.00,,,0.21,1.000000,,2013-03-14 09:22:00,
2013-03-14 05:32:00,-6.0,-12.0,-100.00,SW,225,0.0,0.0,75,0.00,,,0.21,1.000000,,2013-03-14 09:32:00,
2013-03-14 06:02:00,-6.0,-12.0,-100.00,South,176,0.0,2.0,73,0.00,,,0.21,1.000000,,2013-03-14 10:02:00,
2013-03-14 06:12:00,-6.0,-12.0,-100.00,South,176,0.0,2.0,73,0.00,,,0.21,1.000000,,2013-03-14 10:12:00,
2013-03-14 06:22:00,-6.0,-12.0,-100.00,South,176,0.0,2.0,73,0.00,,,0.21,1.000000,,2013-03-14 10:22:00,
2013-03-14 06:32:00,-6.0,-12.0,-100.00,South,176,0.0,2.0,73,0.00,,,0.21,1.000000,,2013-03-14 10:32:00,
2013-03-14 07:02:00,-8.0,-15.0,-100.00,South,187,0.0,0.0,72,0.00,,,0.21,1.000000,,2013-03-14 11:02:00,
2013-03-14 07:12:00,-8.0,-15.0,-100.00,South,187,0.0,0.0,72,0.00,,,0.21,1.000000,,2013-03-14 11:12:00,
2013-03-14 07:22:00,-8.0,-15.0,-100.00,South,187,0.0,0.0,72,0.00,,,0.21,1.000000,,2013-03-14 11:22:00,
2013-03-14 07:33:00,-8.0,-15.0,-100.00,South,187,0.0,0.0,72,0.00,,,0.21,1.000000,,2013-03-14 11:33:00,
2013-03-14 08:02:00,-9.0,-16.0,-100.00,SSW,203,0.0,0.0,72,0.00,,,0.21,1.000000,,2013-03-14 12:02:00,
2013-03-14 08:12:00,-9.0,-16.0,-100.00,SSW,203,0.0,0.0,72,0.00,,,0.21,1.000000,,2013-03-14 12:12:00,
2013-03-14 08:22:00,-9.0,-16.0,-100.00,SSW,203,0.0,0.0,72,0.00,,,0.21,1.000000,,2013-03-14 12:22:00,
2013-03-14 08:33:00,-9.0,-16.0,-100.00,SSW,203,0.0,0.0,72,0.00,,,0.21,1.000000,,2013-03-14 12:33:00,
2013-03-14 09:02:00,-9.0,-16.0,-100.00,South,176,0.0,0.0,72,0.00,,,0.21,5.000000,,2013-03-14 13:02:00,
2013-03-14 09:12:00,-9.0,-16.0,-100.00,South,176,0.0,0.0,72,0.00,,,0.21,5.000000,,2013-03-14 13:12:00,
2013-03-14 09:22:00,-9.0,-16.0,-100.00,South,176,0.0,0.0,72,0.00,,,0.21,5.000000,,2013-03-14 13:22:00,
2013-03-14 09:32:00,-9.0,-16.0,-100.00,South,176,0.0,0.0,72,0.00,,,0.21,5.000000,,2013-03-14 13:32:00,
2013-03-14 10:02:00,4.0,-3.0,-100.00,East,95,0.0,2.0,72,0.00,,,0.21,72.000000,,2013-03-14 14:02:00,
2013-03-14 10:12:00,4.0,-3.0,-100.00,East,95,0.0,2.0,72,0.00,,,0.21,72.000000,,2013-03-14 14:12:00,
2013-03-14 10:22:00,4.0,-3.0,-100.00,East,95,0.0,2.0,72,0.00,,,0.21,72.000000,,2013-03-14 14:22:00,
2013-03-14 10:32:00,4.0,-3.0,-100.00,East,95,0.0,2.0,72,0.00,,,0.21,72.000000,,2013-03-14 14:32:00,
2013-03-14 11:02:00,21.0,11.0,-100.00,South,190,1.0,3.0,65,0.00,,,0.21,265.000000,,2013-03-14 15:02:00,
2013-03-14 11:12:00,21.0,11.0,-100.00,South,190,1.0,3.0,65,0.00,,,0.21,265.000000,,2013-03-14 15:12:00,
2013-03-14 11:22:00,21.0,11.0,-100.00,South,190,1.0,3.0,65,0.00,,,0.21,265.000000,,2013-03-14 15:22:00,
2013-03-14 11:32:00,21.0,11.0,-100.00,South,190,1.0,3.0,65,0.00,,,0.21,265.000000,,2013-03-14 15:32:00,
2013-03-14 11:52:00,32.0,13.0,-100.00,South,178,2.0,6.0,45,0.01,,,0.22,397.000000,,2013-03-14 15:52:00,
2013-03-14 12:03:00,32.0,13.0,-100.00,South,178,2.0,6.0,45,0.01,,,0.22,397.000000,,2013-03-14 16:03:00,
2013-03-14 12:12:00,32.0,13.0,-100.00,South,178,2.0,6.0,45,0.01,,,0.22,397.000000,,2013-03-14 16:12:00,
2013-03-14 12:22:00,32.0,13.0,-100.00,South,178,2.0,6.0,45,0.01,,,0.22,397.000000,,2013-03-14 16:22:00,
2013-03-14 12:32:00,32.0,13.0,-100.00,South,178,2.0,6.0,45,0.01,,,0.22,397.000000,,2013-03-14 16:32:00,
2013-03-14 12:52:00,35.0,10.0,-100.00,SW,228,6.0,12.0,35,0.00,,,0.22,563.000000,,2013-03-14 16:52:00,
2013-03-14 13:02:00,35.0,10.0,-100.00,SW,228,6.0,12.0,35,0.00,,,0.22,563.000000,,2013-03-14 17:02:00,
2013-03-14 13:12:00,35.0,10.0,-100.00,SW,228,6.0,12.0,35,0.00,,,0.22,563.000000,,2013-03-14 17:12:00,
2013-03-14 13:23:00,35.0,10.0,-100.00,SW,228,6.0,12.0,35,0.00,,,0.22,563.000000,,2013-03-14 17:23:00,
2013-03-14 13:32:00,35.0,10.0,-100.00,SW,228,6.0,12.0,35,0.00,,,0.22,563.000000,,2013-03-14 17:32:00,
2013-03-14 13:53:00,38.0,12.0,-100.00,SW,228,5.0,11.0,34,0.01,,,0.23,660.000000,,2013-03-14 17:53:00,
2013-03-14 14:03:00,38.0,12.0,-100.00,SW,228,5.0,11.0,34,0.01,,,0.23,660.000000,,2013-03-14 18:03:00,
2013-03-14 14:12:00,38.0,12.0,-100.00,SW,228,5.0,11.0,34,0.01,,,0.23,660.000000,,2013-03-14 18:12:00,
2013-03-14 14:22:00,38.0,12.0,-100.00,SW,228,5.0,11.0,34,0.01,,,0.23,660.000000,,2013-03-14 18:22:00,
2013-03-14 14:32:00,38.0,12.0,-100.00,SW,228,5.0,11.0,34,0.01,,,0.23,660.000000,,2013-03-14 18:32:00,
2013-03-14 14:52:00,41.0,15.0,-100.00,SW,228,5.0,11.0,34,0.01,,,0.19,712.000000,,2013-03-14 18:52:00,
2013-03-14 15:03:00,41.0,15.0,-100.00,SW,228,5.0,11.0,34,0.01,,,0.19,712.000000,,2013-03-14 19:03:00,
2013-03-14 15:12:00,41.0,15.0,-100.00,SW,228,5.0,11.0,34,0.01,,,0.19,712.000000,,2013-03-14 19:12:00,
2013-03-14 15:23:00,41.0,15.0,-100.00,SW,228,5.0,11.0,34,0.01,,,0.19,712.000000,,2013-03-14 19:23:00,
2013-03-14 15:32:00,41.0,15.0,-100.00,SW,228,5.0,11.0,34,0.01,,,0.19,712.000000,,2013-03-14 19:32:00,
2013-03-14 17:02:00,38.0,16.0,-100.00,WSW,239,7.0,14.0,40,-99.99,,,0.06,425.000000,,2013-03-14 21:02:00,
2013-03-14 17:12:00,38.0,16.0,-100.00,WSW,239,7.0,14.0,40,-99.99,,,0.06,425.000000,,2013-03-14 21:12:00,
2013-03-14 17:22:00,38.0,16.0,-100.00,WSW,239,7.0,14.0,40,-99.99,,,0.06,425.000000,,2013-03-14 21:22:00,
2013-03-14 17:32:00,38.0,16.0,-100.00,WSW,239,7.0,14.0,40,-99.99,,,0.06,425.000000,,2013-03-14 21:32:00,
2013-03-14 18:03:00,38.0,18.0,-100.00,WSW,248,7.0,13.0,44,0.00,,,0.03,297.000000,,2013-03-14 22:03:00,
2013-03-14 18:13:00,38.0,18.0,-100.00,WSW,248,7.0,13.0,44,0.00,,,0.03,297.000000,,2013-03-14 22:13:00,
2013-03-14 18:23:00,38.0,18.0,-100.00,WSW,248,7.0,13.0,44,0.00,,,0.03,297.000000,,2013-03-14 22:23:00,
2013-03-14 18:33:00,38.0,18.0,-100.00,WSW,248,7.0,13.0,44,0.00,,,0.03,297.000000,,2013-03-14 22:33:00,
2013-03-14 19:02:00,39.0,22.0,-100.00,WSW,246,6.0,16.0,51,0.00,,,0.03,233.000000,,2013-03-14 23:02:00,
2013-03-14 19:12:00,39.0,22.0,-100.00,WSW,246,6.0,16.0,51,0.00,,,0.03,233.000000,,2013-03-14 23:12:00,
2013-03-14 19:22:00,39.0,22.0,-100.00,WSW,246,6.0,16.0,51,0.00,,,0.03,233.000000,,2013-03-14 23:22:00,
2013-03-14 19:33:00,39.0,22.0,-100.00,WSW,246,6.0,16.0,51,0.00,,,0.03,233.000000,,2013-03-14 23:33:00,
2013-03-14 20:02:00,34.0,23.0,-100.00,WSW,244,3.0,10.0,63,0.00,,,0.03,74.000000,,2013-03-15 00:02:00,
2013-03-14 20:12:00,34.0,23.0,-100.00,WSW,244,3.0,10.0,63,0.00,,,0.03,74.000000,,2013-03-15 00:12:00,
2013-03-14 20:22:00,34.0,23.0,-100.00,WSW,244,3.0,10.0,63,0.00,,,0.03,74.000000,,2013-03-15 00:22:00,
2013-03-14 20:32:00,34.0,23.0,-100.00,WSW,244,3.0,10.0,63,0.00,,,0.03,74.000000,,2013-03-15 00:32:00,
2013-03-14 21:02:00,32.0,23.0,-100.00,WSW,256,4.0,10.0,69,0.00,,,0.03,5.000000,,2013-03-15 01:02:00,
2013-03-14 21:12:00,32.0,23.0,-100.00,WSW,256,4.0,10.0,69,0.00,,,0.03,5.000000,,2013-03-15 01:12:00,
2013-03-14 21:22:00,32.0,23.0,-100.00,WSW,256,4.0,10.0,69,0.00,,,0.03,5.000000,,2013-03-15 01:22:00,
2013-03-14 21:32:00,32.0,23.0,-100.00,WSW,256,4.0,10.0,69,0.00,,,0.03,5.000000,,2013-03-15 01:32:00,
2013-03-14 22:02:00,31.0,24.0,-100.00,WSW,242,5.0,12.0,76,0.00,,,0.03,1.000000,,2013-03-15 02:02:00,
2013-03-14 22:12:00,31.0,24.0,-100.00,WSW,242,5.0,12.0,76,0.00,,,0.03,1.000000,,2013-03-15 02:12:00,
2013-03-14 22:22:00,31.0,24.0,-100.00,WSW,242,5.0,12.0,76,0.00,,,0.03,1.000000,,2013-03-15 02:22:00,
2013-03-14 22:32:00,31.0,24.0,-100.00,WSW,242,5.0,12.0,76,0.00,,,0.03,1.000000,,2013-03-15 02:32:00,
2013-03-14 23:02:00,31.0,24.0,-100.00,WSW,245,6.0,14.0,76,0.00,,,0.03,1.000000,,2013-03-15 03:02:00,
2013-03-14 23:12:00,31.0,24.0,-100.00,WSW,245,6.0,14.0,76,0.00,,,0.03,1.000000,,2013-03-15 03:12:00,
2013-03-14 23:22:00,31.0,24.0,-100.00,WSW,245,6.0,14.0,76,0.00,,,0.03,1.000000,,2013-03-15 03:22:00,
2013-03-14 23:33:00,31.0,24.0,-100.00,WSW,245,6.0,14.0,76,0.00,,,0.03,1.000000,,2013-03-15 03:33:00,